CW4535 Weather Reports


Display with metric or nautical units.
time (UTC)temp
F
wind
direction
speed
MPH
gust
MPH
rain 1hr
in
rain 24hr
in
rain mn
in
humidity
%
barometer
mb
20260505230003 54 3 3.0 11.0 0.00 0.00 0.00 73 1008.8
20260505225003 54 13 4.0 16.0 0.00 0.00 0.00 73 1008.6
20260505224003 54 17 4.0 13.0 0.00 0.00 0.00 72 1008.2
20260505223003 55 9 4.0 14.0 0.00 0.00 0.00 71 1008.3
20260505222221 55 5 4.0 13.0 0.00 0.00 0.00 71 1008.0
20260505221003 55 4 4.0 14.0 0.00 0.00 0.00 71 1007.8
20260505220003 55 356 6.0 17.0 0.00 0.00 0.00 72 1008.0
20260505215003 55 18 3.0 11.0 0.00 0.00 0.00 73 1007.9
20260505214003 55 17 3.0 10.0 0.00 0.00 0.00 74 1007.8
20260505213003 55 360 4.0 16.0 0.00 0.00 0.00 74 1008.0
20260505212003 55 359 4.0 14.0 0.00 0.00 0.00 74 1007.9
20260505211003 55 4 5.0 13.0 0.00 0.00 0.00 74 1007.6
20260505210003 55 350 5.0 17.0 0.00 0.00 0.00 74 1007.5
20260505205003 56 352 5.0 15.0 0.00 0.00 0.00 75 1007.5
20260505204220 55 351 5.0 15.0 0.00 0.00 0.00 75 1007.8
20260505203003 55 358 5.0 15.0 0.00 0.00 0.00 76 1007.6
20260505202003 56 353 5.0 17.0 0.00 0.00 0.00 76 1007.5
20260505201003 56 352 6.0 15.0 0.00 0.00 0.00 77 1007.4
20260505200003 56 349 5.0 19.0 0.00 0.00 0.00 77 1007.3
20260505195003 56 1 4.0 18.0 0.00 0.00 0.00 78 1007.3
20260505194003 56 2 4.0 10.0 0.00 0.00 0.00 78 1007.5
20260505193003 56 358 5.0 16.0 0.00 0.00 0.00 77 1007.3
20260505192003 57 14 4.0 11.0 0.00 0.00 0.00 78 1007.0
20260505191003 57 350 5.0 15.0 0.00 0.00 0.00 79 1006.9
20260505190004 57 360 5.0 14.0 0.00 0.00 0.00 80 1006.8
20260505185220 56 354 5.0 15.0 0.00 0.00 0.00 80 1006.9
20260505184003 56 11 4.0 13.0 0.00 0.00 0.00 82 1006.7
20260505183003 56 1 3.0 15.0 0.00 0.00 0.00 82 1006.8
20260505182003 56 6 3.0 7.0 0.00 0.00 0.00 83 1006.8
20260505181003 56 349 5.0 13.0 0.00 0.00 0.00 84 1007.0
20260505180004 56 348 5.0 15.0 0.00 0.00 0.00 84 1006.5
20260505175003 57 335 5.0 13.0 0.00 0.00 0.00 84 1006.2
20260505174003 57 350 5.0 15.0 0.00 0.00 0.00 85 1006.0
20260505173003 57 355 5.0 17.0 0.00 0.00 0.00 85 1005.9
20260505172003 57 360 3.0 9.0 0.00 0.00 0.00 85 1006.1
20260505171220 57 356 5.0 17.0 0.00 0.00 0.00 85 1006.2
20260505170003 57 360 3.0 11.0 0.00 0.00 0.00 85 1005.5
20260505165003 57 356 4.0 12.0 0.00 0.00 0.00 85 1005.5
20260505164003 57 5 4.0 11.0 0.00 0.00 0.00 85 1005.3
20260505163218 57 360 5.0 16.0 0.00 0.00 0.00 85 1005.2
20260505162003 58 360 5.0 14.0 0.00 0.00 0.00 85 1005.2
20260505161003 59 9 3.0 12.0 0.00 0.00 0.00 85 1005.1
20260505153219 61 359 4.0 9.0 0.00 0.00 0.00 84 1004.3
20260505152004 62 344 5.0 13.0 0.00 0.00 0.00 82 1004.1
20260505151003 64 343 5.0 14.0 0.00 0.00 0.00 82 1003.9
20260505125003 66 84 3.0 9.0 0.00 0.00 0.00 85 1002.6
20260505124003 66 80 1.0 6.0 0.00 0.00 0.00 85 1002.7
20260505123003 66 70 3.0 13.0 0.00 0.00 0.00 85 1002.6
20260505122003 66 72 2.0 8.0 0.00 0.00 0.00 85 1002.4
20260505121218 66 69 2.0 10.0 0.00 0.00 0.00 86 1002.5
20260505120004 66 76 2.0 9.0 0.00 0.00 0.00 86 1002.5
20260505115004 66 80 3.0 11.0 0.00 0.00 0.00 86 1002.4
20260505114003 66 75 1.0 8.0 0.00 0.00 0.00 86 1002.4
20260505113004 66 0 0.0 0.0 0.00 0.00 0.00 86 1002.4
20260505112217 66 40 0.0 4.0 0.00 0.00 0.00 86 1002.5
20260505111218 66 72 0.0 4.0 0.00 0.00 0.00 86 1002.4
20260505102218 66 73 4.0 13.0 0.00 0.00 0.00 86 1001.5
20260505101003 66 69 2.0 14.0 0.00 0.00 0.00 86 1001.3
20260505100003 66 67 2.0 11.0 0.00 0.00 0.00 86 1001.2
20260505095003 66 66 2.0 9.0 0.00 0.00 0.00 86 1001.2
20260505094003 66 73 2.0 8.0 0.00 0.00 0.00 85 1001.2
20260505093003 66 70 2.0 12.0 0.00 0.00 0.00 84 1001.2
20260505092219 66 75 3.0 10.0 0.00 0.00 0.00 84 1001.3
20260505091003 66 73 1.0 8.0 0.00 0.00 0.00 83 1001.3
20260505090003 66 67 2.0 8.0 0.00 0.00 0.00 82 1001.3
20260505085003 67 77 1.0 7.0 0.00 0.00 0.00 81 1001.3
20260505084004 68 76 2.0 9.0 0.00 0.00 0.00 80 1001.3
20260505083003 68 74 1.0 8.0 0.00 0.00 0.00 80 1001.4
20260505082003 68 76 2.0 8.0 0.00 0.00 0.00 79 1001.4
20260505081220 68 74 2.0 8.0 0.00 0.00 0.00 79 1001.4
20260505080004 68 74 2.0 9.0 0.00 0.00 0.00 79 1001.5
20260505075003 68 74 3.0 12.0 0.00 0.00 0.00 79 1001.6
20260505074218 68 73 0.0 1.0 0.00 0.00 0.00 79 1001.7
20260505073003 68 78 2.0 8.0 0.00 0.00 0.00 80 1001.9
20260505072003 68 70 0.0 4.0 0.00 0.00 0.00 79 1002.3
20260505071221 68 75 0.0 6.0 0.00 0.00 0.00 79 1002.3
20260505070004 68 79 0.0 2.0 0.00 0.00 0.00 79 1002.3
20260505065218 68 0 0.0 0.0 0.00 0.00 0.00 78 1002.6
20260505064219 69 0 0.0 0.0 0.00 0.00 0.00 77 1002.6
20260505063003 69 0 0.0 0.0 0.00 0.00 0.00 77 1002.9
20260505062003 69 0 0.0 0.0 0.00 0.00 0.00 77 1002.9
20260505061003 69 0 0.0 0.0 0.00 0.00 0.00 76 1002.7
20260505060004 69 0 0.0 0.0 0.00 0.00 0.00 76 1002.4
20260505055003 69 0 0.0 0.0 0.00 0.00 0.00 75 1002.2
20260505054003 69 124 0.0 8.0 0.00 0.00 0.00 75 1002.0
20260505053003 69 152 1.0 3.0 0.00 0.00 0.00 75 1001.8
20260505052221 70 143 1.0 6.0 0.00 0.00 0.00 74 1001.9
20260505051003 70 138 2.0 8.0 0.00 0.00 0.00 74 1001.6
20260505041003 70 134 3.0 10.0 0.00 0.00 0.00 70 1001.9
20260505040004 71 130 2.0 9.0 0.00 0.00 0.00 69 1001.9
20260505035219 71 141 2.0 11.0 0.00 0.00 0.00 69 1001.9
20260505034003 71 139 2.0 6.0 0.00 0.00 0.00 69 1002.4
20260505033003 71 136 2.0 12.0 0.00 0.00 0.00 68 1002.4
20260505032003 71 128 2.0 11.0 0.00 0.00 0.00 67 1002.5
20260505031003 71 141 1.0 5.0 0.00 0.00 0.00 66 1002.5
20260505030003 72 135 3.0 11.0 0.00 0.00 0.00 65 1002.7
20260505025004 72 132 1.0 10.0 0.00 0.00 0.00 65 1002.8
20260505024003 72 132 1.0 13.0 0.00 0.00 0.00 65 1002.9
20260505023003 72 135 1.0 7.0 0.00 0.00 0.00 65 1003.0
20260505022003 73 139 2.0 8.0 0.00 0.00 0.00 64 1002.8
20260505021003 73 142 1.0 7.0 0.00 0.00 0.00 64 1002.6
20260505020220 73 145 2.0 7.0 0.00 0.00 0.00 64 1002.6
20260505015003 74 136 2.0 11.0 0.00 0.00 0.00 63 1002.6
20260505014003 74 133 2.0 12.0 0.00 0.00 0.00 64 1002.6
20260505013003 74 146 2.0 10.0 0.00 0.00 0.00 64 1002.6
20260505012003 74 129 1.0 8.0 0.00 0.00 0.00 63 1002.5
20260505011003 74 132 1.0 7.0 0.00 0.00 0.00 63 1002.5
20260505005004 76 143 1.0 7.0 0.00 0.00 0.00 62 1002.5
20260505004003 76 140 1.0 6.0 0.00 0.00 0.00 62 1002.6
20260505003003 76 152 1.0 9.0 0.00 0.00 0.00 61 1002.6
20260505002003 77 152 2.0 9.0 0.00 0.00 0.00 60 1002.6
20260505001003 77 151 3.0 13.0 0.00 0.00 0.00 60 1002.7
20260505000003 77 148 2.0 12.0 0.00 0.00 0.00 60 1002.9
20260504235003 78 158 2.0 12.0 0.00 0.00 0.00 59 1002.8
20260504234003 78 169 2.0 10.0 0.00 0.00 0.00 59 1002.7
20260504233003 78 156 2.0 10.0 0.00 0.00 0.00 59 1002.9
20260504232003 78 149 3.0 8.0 0.00 0.00 0.00 59 1002.9
20260504231221 78 156 3.0 12.0 0.00 0.00 0.00 58 1002.9